When you browse on this site, cookies collect data to enhance your experience and personalize the content and advertising you see.
Visit our Privacy Policy to learn more. By continuing to use the site, you agree to this use of cookies and data.
  • In France
  • List of Countries
  • For 7 days
  • Water Temperature
  • Satellite Maps
  • Weather Map
  • Weather Widgets
  • user-avatar
    Login

    Hourly Weather Bushehr

    Today, 22 July, Monday

    Time Temperature Precipitation Wind Pressure Humidity
    00:00 +32°C° 0 mm 2 mps 746 mmHg 42%
    01:00 +31°C° 0 mm 2 mps 746 mmHg 48%
    02:00 +30°C° 0 mm 2 mps 746 mmHg 54%
    03:00 +29°C° 0 mm 2 mps 745 mmHg 61%
    04:00 +30°C° 0 mm 1 mps 745 mmHg 57%
    05:00 +31°C° 0 mm 1 mps 746 mmHg 54%
    06:00 +32°C° 0 mm 1 mps 746 mmHg 50%
    07:00 +36°C° 0 mm 2 mps 746 mmHg 42%
    08:00 +39°C° 0 mm 3 mps 746 mmHg 33%
    09:00 +43°C° 0 mm 4 mps 746 mmHg 25%
    10:00 +45°C° 0 mm 5 mps 746 mmHg 24%
    11:00 +45°C° 0 mm 5 mps 746 mmHg 24%
    12:00 +46°C° 0 mm 6 mps 746 mmHg 23%
    13:00 +45°C° 0 mm 6 mps 745 mmHg 26%
    14:00 +45°C° 0 mm 6 mps 745 mmHg 29%
    15:00 +44°C° 0 mm 6 mps 744 mmHg 31%
    16:00 +41°C° 0 mm 6 mps 744 mmHg 37%
    17:00 +39°C° 0 mm 5 mps 744 mmHg 42%
    18:00 +37°C° 0 mm 5 mps 744 mmHg 48%
    19:00 +36°C° 0 mm 4 mps 745 mmHg 51%
    20:00 +35°C° 0 mm 4 mps 745 mmHg 55%
    21:00 +34°C° 0 mm 3 mps 745 mmHg 59%
    22:00 +34°C° 0 mm 3 mps 745 mmHg 55%
    23:00 +34°C° 0 mm 2 mps 745 mmHg 52%

    Tomorrow, 23 July, Tuesday

    Time Temperature Precipitation Wind Pressure Humidity
    00:00 +34°C° 0 mm 2 mps 745 mmHg 48%
    01:00 +34°C° 0 mm 2 mps 745 mmHg 53%
    02:00 +32°C° 0 mm 2 mps 744 mmHg 59%
    03:00 +33°C° 0 mm 3 mps 744 mmHg 64%
    04:00 +32°C° 0 mm 2 mps 745 mmHg 62%
    05:00 +34°C° 0 mm 2 mps 745 mmHg 61%
    06:00 +34°C° 0 mm 2 mps 745 mmHg 60%
    07:00 +36°C° 0 mm 2 mps 746 mmHg 51%
    08:00 +39°C° 0 mm 2 mps 746 mmHg 41%
    09:00 +42°C° 0 mm 3 mps 746 mmHg 32%
    10:00 +43°C° 0 mm 4 mps 746 mmHg 32%
    11:00 +45°C° 0 mm 5 mps 746 mmHg 32%
    12:00 +45°C° 0 mm 7 mps 746 mmHg 32%
    13:00 +45°C° 0 mm 7 mps 746 mmHg 36%
    14:00 +44°C° 0 mm 6 mps 746 mmHg 40%
    15:00 +42°C° 0 mm 6 mps 745 mmHg 43%
    16:00 +41°C° 0 mm 5 mps 745 mmHg 49%
    17:00 +38°C° 0 mm 4 mps 746 mmHg 55%
    18:00 +37°C° 0 mm 3 mps 746 mmHg 61%
    19:00 +36°C° 0 mm 2 mps 746 mmHg 67%
    20:00 +34°C° 0 mm 2 mps 746 mmHg 72%
    21:00 +32°C° 0 mm 2 mps 747 mmHg 77%
    22:00 +32°C° 0 mm 2 mps 747 mmHg 78%
    23:00 +32°C° 0 mm 2 mps 746 mmHg 78%

    Day after tomorrow, 24 July, Wednesday

    Time Temperature Precipitation Wind Pressure Humidity
    00:00 +31°C° 0 mm 2 mps 746 mmHg 78%
    01:00 +31°C° 0 mm 2 mps 746 mmHg 76%
    02:00 +32°C° 0 mm 2 mps 746 mmHg 73%
    03:00 +32°C° 0 mm 1 mps 746 mmHg 71%
    04:00 +32°C° 0 mm 1 mps 746 mmHg 69%
    05:00 +33°C° 0 mm 1 mps 747 mmHg 66%
    06:00 +33°C° 0 mm 1 mps 747 mmHg 64%
    07:00 +36°C° 0 mm 1 mps 747 mmHg 56%
    08:00 +39°C° 0 mm 1 mps 748 mmHg 47%
    09:00 +41°C° 0 mm 2 mps 748 mmHg 39%
    10:00 +43°C° 0 mm 3 mps 747 mmHg 36%
    11:00 +44°C° 0 mm 4 mps 747 mmHg 32%
    12:00 +46°C° 0 mm 5 mps 747 mmHg 29%
    13:00 +45°C° 0 mm 5 mps 746 mmHg 31%
    14:00 +45°C° 0 mm 5 mps 746 mmHg 32%
    15:00 +43°C° 0 mm 5 mps 746 mmHg 33%
    16:00 +42°C° 0 mm 4 mps 746 mmHg 39%
    17:00 +40°C° 0 mm 4 mps 746 mmHg 44%
    18:00 +38°C° 0 mm 3 mps 746 mmHg 50%
    19:00 +36°C° 0 mm 2 mps 746 mmHg 58%
    20:00 +33°C° 0 mm 1 mps 746 mmHg 65%
    21:00 +31°C° 0 mm 1 mps 747 mmHg 73%
    22:00 +29°C° 0 mm 0 mps 747 mmHg 73%
    23:00 +29°C° 0 mm 0 mps 746 mmHg 73%

    25 July, Thursday

    Time Temperature Precipitation Wind Pressure Humidity
    00:00 +29°C° 0 mm 0 mps 746 mmHg 72%
    01:00 +31°C° 0 mm 1 mps 746 mmHg 71%
    02:00 +31°C° 0 mm 1 mps 746 mmHg 70%
    03:00 +31°C° 0 mm 1 mps 746 mmHg 69%
    04:00 +32°C° 0 mm 1 mps 746 mmHg 66%
    05:00 +33°C° 0 mm 1 mps 747 mmHg 63%
    06:00 +31°C° 0 mm 0 mps 747 mmHg 61%
    07:00 +35°C° 0 mm 1 mps 747 mmHg 53%
    08:00 +39°C° 0 mm 2 mps 748 mmHg 45%
    09:00 +41°C° 0 mm 2 mps 748 mmHg 37%
    10:00 +43°C° 0 mm 3 mps 747 mmHg 34%
    11:00 +44°C° 0 mm 4 mps 747 mmHg 32%
    12:00 +46°C° 0 mm 5 mps 747 mmHg 30%
    13:00 +45°C° 0 mm 5 mps 746 mmHg 31%
    14:00 +43°C° 0 mm 5 mps 746 mmHg 32%
    15:00 +43°C° 0 mm 5 mps 745 mmHg 34%
    16:00 +42°C° 0 mm 3 mps 745 mmHg 38%
    17:00 +39°C° 0 mm 2 mps 745 mmHg 42%
    18:00 +37°C° 0 mm 1 mps 745 mmHg 46%
    19:00 +35°C° 0 mm 1 mps 745 mmHg 51%
    20:00 +33°C° 0 mm 1 mps 746 mmHg 57%
    21:00 +32°C° 0 mm 1 mps 746 mmHg 63%
    22:00 +32°C° 0 mm 1 mps 745 mmHg 62%
    23:00 +29°C° 0 mm 0 mps 745 mmHg 61%

    26 July, Friday

    Time Temperature Precipitation Wind Pressure Humidity
    00:00 +29°C° 0 mm 0 mps 745 mmHg 61%
    01:00 +31°C° 0 mm 1 mps 745 mmHg 60%
    02:00 +32°C° 0 mm 1 mps 745 mmHg 59%
    03:00 +32°C° 0 mm 2 mps 745 mmHg 59%
    04:00 +32°C° 0 mm 1 mps 745 mmHg 58%
    05:00 +33°C° 0 mm 1 mps 745 mmHg 56%
    06:00 +33°C° 0 mm 1 mps 746 mmHg 55%
    07:00 +37°C° 0 mm 2 mps 746 mmHg 48%
    08:00 +39°C° 0 mm 2 mps 746 mmHg 40%
    09:00 +42°C° 0 mm 3 mps 746 mmHg 33%
    10:00 +43°C° 0 mm 3 mps 746 mmHg 32%
    11:00 +44°C° 0 mm 4 mps 745 mmHg 31%
    12:00 +46°C° 0 mm 5 mps 745 mmHg 31%
    13:00 +45°C° 0 mm 5 mps 744 mmHg 32%
    14:00 +43°C° 0 mm 5 mps 744 mmHg 33%
    15:00 +43°C° 0 mm 5 mps 743 mmHg 34%
    16:00 +42°C° 0 mm 4 mps 743 mmHg 37%
    17:00 +41°C° 0 mm 4 mps 743 mmHg 40%
    18:00 +38°C° 0 mm 3 mps 743 mmHg 43%
    19:00 +37°C° 0 mm 3 mps 744 mmHg 49%
    20:00 +35°C° 0 mm 3 mps 744 mmHg 54%
    21:00 +34°C° 0 mm 3 mps 744 mmHg 60%
    22:00 +33°C° 0 mm 3 mps 744 mmHg 65%
    23:00 +31°C° 0 mm 3 mps 744 mmHg 69%

    27 July, Saturday

    Time Temperature Precipitation Wind Pressure Humidity
    00:00 +31°C° 0 mm 2 mps 744 mmHg 74%
    01:00 +31°C° 0 mm 2 mps 744 mmHg 76%
    02:00 +30°C° 0 mm 2 mps 744 mmHg 78%
    03:00 +30°C° 0 mm 2 mps 744 mmHg 80%
    04:00 +31°C° 0 mm 2 mps 744 mmHg 76%
    05:00 +31°C° 0 mm 2 mps 744 mmHg 73%
    06:00 +32°C° 0 mm 2 mps 745 mmHg 69%
    07:00 +36°C° 0 mm 2 mps 745 mmHg 58%
    08:00 +38°C° 0 mm 3 mps 745 mmHg 46%
    09:00 +42°C° 0 mm 4 mps 745 mmHg 34%
    10:00 +43°C° 0 mm 5 mps 745 mmHg 32%
    11:00 +45°C° 0 mm 5 mps 744 mmHg 30%
    12:00 +46°C° 0 mm 6 mps 744 mmHg 28%
    13:00 +45°C° 0 mm 6 mps 744 mmHg 29%
    14:00 +45°C° 0 mm 5 mps 743 mmHg 29%
    15:00 +43°C° 0 mm 5 mps 743 mmHg 30%
    16:00 +42°C° 0 mm 5 mps 743 mmHg 36%
    17:00 +40°C° 0 mm 5 mps 743 mmHg 42%
    18:00 +37°C° 0 mm 5 mps 742 mmHg 48%
    19:00 +36°C° 0 mm 5 mps 743 mmHg 55%
    20:00 +34°C° 0 mm 5 mps 743 mmHg 61%
    21:00 +33°C° 0 mm 4 mps 744 mmHg 67%
    22:00 +33°C° 0 mm 4 mps 744 mmHg 68%
    23:00 +32°C° 0 mm 4 mps 744 mmHg 68%
    Show more